[Iaude] MPEC W122: 2023 WD3 [a=1.66,e=0.52,i=7.5,H=25.1]
    mpec at marsden.cfa.harvard.edu 
    mpec at marsden.cfa.harvard.edu
       
    Sat Nov 25 15:38:06 EST 2023
    
    
  
M.P.E.C. 2023-W122                            Issued 2023 November 25, 20:36 UT
     The Minor Planet Electronic Circulars contain information on unusual
         minor planets, routine data on comets and natural satellites,
         and occasional editorial announcements.  They are published
    on behalf of Division F of the International Astronomical Union by the
          Minor Planet Center, Smithsonian Astrophysical Observatory,
                          Cambridge, MA 02138, U.S.A.
			  
             Prepared using the Tamkin Foundation Computer Network
                              MPC at CFA.HARVARD.EDU
            URL https://www.minorplanetcenter.net/    ISSN 1523-6714
                                    2023 WD3                                    
Observations:
     K23W03D*1C2023 11 24.29937905 01 41.660+16 01 12.29         19.58GVEW122G96
     K23W03D 1C2023 11 24.30451805 01 44.072+16 01 42.56         19.99GVEW122G96
     K23W03D 1C2023 11 24.30965905 01 46.506+16 02 13.13         19.61GVEW122G96
     K23W03D 1C2023 11 24.31479205 01 48.911+16 02 45.06         20.04GVEW122G96
     K23W03D 1C2023 11 24.34230605 02 01.940+16 05 30.70               VEW122G96
     K23W03D 1C2023 11 24.34289405 02 02.180+16 05 34.10               VEW122G96
     K23W03D 1C2023 11 24.34348305 02 02.470+16 05 38.00         19.98GVEW122G96
     K23W03D 1C2023 11 24.34407205 02 02.730+16 05 40.70         20.71GVEW122G96
     K23W03D KC2023 11 24.87042005 07 08.405+17 01 17.11         19.4 GVEW122J95
     K23W03D KC2023 11 24.89498905 07 22.963+17 04 09.66         19.6 GVEW122J95
     K23W03D KC2023 11 24.90363105 07 28.046+17 05 11.72         19.6 GVEW122J95
     K23W03D pC2023 11 25.82189405 18 26.22 +19 05 47.6          19.3 GVEW122L01
     K23W03D pC2023 11 25.82491305 18 28.68 +19 06 15.1          18.5 GVEW122L01
     K23W03D pC2023 11 25.82876705 18 31.82 +19 06 51.5          18.6 GVEW122L01
     K23W03D IC2023 11 25.83035505 18 33.04 +19 07 06.1          18.6 GVEW122L01
     K23W03D pC2023 11 25.83675605 18 38.20 +19 08 04.6          18.7 GVEW122L01
Observer details:
G96 Mt. Lemmon Survey.  Observer H. Groeller.  Measurers E. C. Beshore, D.
    Fay, J. B. Fazekas, D. C. Fuls, A. R. Gibbs, A. D. Grauer, H. Groeller, J.
    K. Hogan, R. A. Kowalski, S. M. Larson, G. J. Leonard, D. Rankin, R. L.
    Seaman, F. C. Shelly, K. W. Wierzchos.  1.5-m reflector + 10K CCD.
J95 Great Shefford.  Observer P. Birtwhistle.  0.41-m f/6.3 Schmidt-Cassegrain
    + CCD.
L01 Visnjan Observatory, Tican.  Observer K. Korlevic.  1.0-m f/2.9 reflector
    + CCD.
Orbital elements:
2023 WD3                                                 Earth MOID = 0.0109 AU
Epoch 2023 Sept. 13.0 TT = JDT 2460200.5                MPC                     
M 303.04631              (2000.0)            P               Q                  
n   0.46010220     Peri.   69.70821     -0.69851330     -0.70580686             
a   1.6617531      Node    65.18068     +0.59846024     -0.66656060             
e   0.5226281      Incl.    7.46786     +0.39233214     -0.23986171             
P   2.14           H   25.14          G   0.15           U   9                  
Residuals in seconds of arc
231124 G96  0.2+  0.4+    231124 G96  0.1-  0.2+    231125 L01  0.1-  0.7-
231124 G96  0.1+  0.2-    231124 G96  0.4-  0.7-    231125 L01  0.6+  0.4+
231124 G96  0.2+  0.7-    231124 J95  0.1+  0.4+    231125 L01  0.1-  0.5+
231124 G96  0.0   0.3+    231124 J95  0.2+  0.6-    231125 L01  0.4+  0.3+
231124 G96  0.3+  0.0     231124 J95  0.3-  0.3+
231124 G96  0.3-  0.2-    231125 L01  0.7-  0.6-
Ephemeris:
2023 WD3                 a,e,i = 1.66, 0.52, 7                   q = 0.7933
Date    TT    R. A. (2000) Decl.     Delta      r    Elong.  Phase     V
2023 10 26    04 03 48.0 +07 08 00   0.3238  1.2825   148.9    23.6    24.3
...
2023 11 10    04 18 11.9 +08 02 56   0.1801  1.1600   158.6    18.2    22.7
...
2023 11 18    04 31 56.4 +10 17 30   0.1110  1.0952   162.8    15.4    21.4
...
2023 11 24    04 59 08.6 +15 33 05   0.06244 1.0477   164.2    14.9    20.0
2023 11 25    05 08 22.7 +17 18 04   0.05475 1.0399   163.5    15.6    19.8
2023 11 26    05 20 48.3 +19 34 33   0.04725 1.0321   162.0    17.2    19.5
...
2023 12 02    11 37 31.0 +38 08 57   0.02142 0.9866    91.0    87.7    19.9
...
2023 12 10    15 13 22.9 +07 16 29   0.07402 0.9300    40.6   136.4    25.7
...
2023 12 25    15 50 08.8 -01 00 10   0.1986  0.8435    40.9   130.2    27.0
A. U. Tomatic                (C) Copyright 2023 MPC           M.P.E.C. 2023-W122
    
    
More information about the Iaude
mailing list